GW7074 Weather Reports


time (UTC)temp
C
wind
direction
speed
KPH
gust
KPH
rain 1hr
cm
rain 24hr
cm
rain mn
cm
humidity
%
barometer
mb
20260502170348 20 18 14.5 16.1 0.00 0.00 0.00 54 1020.4
20260502164335 21 27 6.4 11.3 0.00 0.00 0.00 58 1020.4
20260502163831 20 19 14.5 17.7 0.00 0.00 0.00 54 1020.5
20260502163328 20 21 6.4 9.7 0.00 0.00 0.00 59 1020.5
20260502162826 20 26 14.5 17.7 0.00 0.00 0.00 58 1020.5
20260502162322 20 64 6.4 9.7 0.00 0.00 0.00 60 1020.4
20260502161819 20 357 9.7 12.9 0.00 0.00 0.00 62 1020.3
20260502161315 20 329 9.7 12.9 0.00 0.00 0.00 64 1020.4
20260502160813 20 312 3.2 3.2 0.00 0.00 0.00 66 1020.4
20260502160312 19 332 12.9 16.1 0.00 0.00 0.00 64 1020.3
20260502152241 18 36 4.8 9.7 0.00 0.00 0.00 71 1020.5
20260502151738 17 48 9.7 12.9 0.00 0.00 0.00 72 1020.5
20260502151235 17 25 6.4 6.4 0.00 0.00 0.00 72 1020.3
20260502150733 17 3 4.8 9.7 0.00 0.00 0.00 74 1020.3
20260502150230 17 66 9.7 11.3 0.00 0.00 0.00 74 1020.4
20260502130618 13 343 6.4 9.7 0.00 0.00 0.00 90 1019.2
20260502130116 13 339 9.7 12.9 0.00 0.00 0.00 90 1019.1
20260502123601 12 22 4.8 6.4 0.00 0.00 0.00 92 1018.8
20260502123057 12 318 4.8 6.4 0.00 0.00 0.00 93 1018.7
20260502122554 12 19 6.4 9.7 0.00 0.00 0.00 93 1018.6
20260502122051 12 23 4.8 6.4 0.00 0.00 0.00 93 1018.4
20260502121549 12 250 3.2 3.2 0.00 0.00 0.00 93 1018.3
20260502121046 12 263 3.2 3.2 0.00 0.00 0.00 94 1018.2
20260502120542 12 243 0.0 1.6 0.00 0.00 0.00 94 1018.3
20260502115538 12 267 1.6 1.6 0.00 0.00 0.00 94 1018.2
20260502115033 12 241 0.0 1.6 0.00 0.00 0.00 94 1018.1
20260502114530 12 9 6.4 6.4 0.00 0.00 0.00 94 1018.1
20260502114027 12 359 3.2 6.4 0.00 0.00 0.00 94 1017.9
20260502113524 12 310 4.8 4.8 0.00 0.00 0.00 94 1017.9
20260502113023 12 254 3.2 3.2 0.00 0.00 0.00 93 1017.9
20260502112520 12 259 3.2 3.2 0.00 0.00 0.00 93 1018.0
20260502112017 12 332 3.2 4.8 0.00 0.00 0.00 93 1018.0
20260502111515 12 303 3.2 3.2 0.00 0.00 0.00 93 1017.9
20260502111012 12 246 1.6 1.6 0.00 0.00 0.00 93 1017.8
20260502110509 12 256 3.2 3.2 0.00 0.00 0.00 93 1017.8
20260502110007 12 261 3.2 3.2 0.00 0.00 0.00 92 1017.8
20260502105504 12 339 3.2 3.2 0.00 0.00 0.00 92 1017.6
20260502105002 12 243 0.0 0.0 0.00 0.00 0.00 92 1017.7
20260502104459 12 243 0.0 0.0 0.00 0.00 0.00 92 1017.6
20260502103956 12 264 3.2 4.8 0.00 0.00 0.00 92 1017.6
20260502103453 12 256 3.2 3.2 0.00 0.00 0.00 91 1017.5
20260502102950 12 270 1.6 1.6 0.00 0.00 0.00 91 1017.3
20260502102447 12 357 3.2 4.8 0.00 0.00 0.00 90 1017.2
20260502101944 12 299 6.4 9.7 0.00 0.00 0.00 89 1017.3
20260502101442 12 341 3.2 4.8 0.00 0.00 0.00 89 1017.4
20260502100940 12 296 4.8 6.4 0.00 0.00 0.00 89 1017.1
20260502100439 12 291 3.2 3.2 0.00 0.00 0.00 89 1017.0
20260502091414 13 62 6.4 11.3 0.00 0.00 0.00 89 1016.1
20260502090910 13 239 3.2 4.8 0.00 0.00 0.00 89 1015.9
20260502090408 13 111 3.2 4.8 0.00 0.00 0.00 89 1015.9
20260502071303 13 1 3.2 4.8 0.00 0.00 0.00 93 1015.7
20260502070801 13 330 8.0 11.3 0.00 0.00 0.00 93 1015.9
20260502070258 13 26 6.4 6.4 0.00 0.00 0.00 93 1015.9
20260502065756 13 15 9.7 11.3 0.00 0.00 0.00 93 1015.8
20260502065254 13 22 6.4 6.4 0.00 0.00 0.00 93 1015.7
20260502064752 13 8 6.4 9.7 0.00 0.00 0.00 93 1015.9
20260502064249 13 356 4.8 6.4 0.00 0.00 0.00 93 1015.8
20260502063747 13 27 8.0 11.3 0.00 0.00 0.00 94 1015.8
20260502063245 13 10 6.4 9.7 0.00 0.00 0.00 94 1015.7
20260502062741 13 24 8.0 12.9 0.00 0.00 0.00 94 1015.7
20260502062239 13 358 6.4 6.4 0.00 0.00 0.00 94 1015.9
20260502061737 13 343 11.3 14.5 0.00 0.00 0.00 94 1015.5
20260502061235 13 31 9.7 11.3 0.00 0.00 0.00 94 1015.6
20260502060730 13 6 8.0 12.9 0.00 0.00 0.00 94 1015.5
20260502060226 13 359 9.7 11.3 0.00 0.00 0.00 94 1015.4
20260502055724 13 25 3.2 4.8 0.00 0.00 0.00 94 1015.6
20260502055222 13 64 12.9 20.9 0.00 0.00 0.00 94 1015.7
20260502054721 13 349 8.0 9.7 0.00 0.00 0.00 95 1015.3
20260502054218 13 351 9.7 11.3 0.00 0.00 0.00 95 1015.4
20260502053715 13 358 9.7 11.3 0.00 0.00 0.00 95 1015.2
20260502053212 13 156 4.8 6.4 0.00 0.00 0.00 95 1015.2
20260502052710 13 16 4.8 4.8 0.00 0.00 0.00 95 1015.4
20260502052208 13 28 11.3 12.9 0.00 0.00 0.00 95 1015.2
20260502051706 13 29 8.0 9.7 0.00 0.00 0.00 95 1015.1
20260502051204 13 19 9.7 12.9 0.00 0.00 0.00 95 1015.2
20260502050700 13 25 8.0 11.3 0.00 0.00 0.00 95 1015.3
20260502050156 13 345 3.2 3.2 0.00 0.00 0.00 95 1015.3
20260502045653 13 7 6.4 6.4 0.00 8.61 8.61 95 1015.2
20260502045151 13 12 4.8 6.4 0.00 8.61 8.61 95 1015.1
20260502044647 13 356 3.2 9.7 0.00 8.61 8.61 95 1015.2
20260502044143 13 21 4.8 6.4 0.00 8.61 8.61 95 1015.1
20260502043641 13 19 9.7 16.1 0.00 8.61 8.61 95 1015.0
20260502043138 13 18 8.0 11.3 0.00 8.61 8.61 95 1015.2
20260502042638 13 41 8.0 14.5 0.00 8.61 8.61 95 1015.4
20260502042135 13 27 9.7 11.3 0.00 8.61 8.61 95 1015.4
20260502041633 13 41 9.7 12.9 0.00 8.61 8.61 95 1015.6
20260502041129 13 28 11.3 14.5 0.00 8.61 8.61 95 1015.4
20260502040626 13 19 11.3 14.5 0.00 8.61 8.61 95 1015.2
20260502040124 13 4 11.3 14.5 0.00 8.61 8.61 95 1015.2
20260502035620 13 65 12.9 14.5 0.00 8.61 8.61 95 1015.2
20260502035117 13 14 17.7 20.9 0.00 8.61 8.61 96 1015.1
20260502034615 13 359 8.0 12.9 0.00 8.61 8.61 97 1015.1
20260502034113 13 299 6.4 9.7 0.00 8.61 8.61 97 1015.1
20260502033611 14 313 3.2 4.8 0.00 8.61 8.61 97 1015.0
20260502033108 13 348 6.4 6.4 0.00 8.61 8.61 97 1014.8
20260502032603 13 276 8.0 9.7 0.00 8.61 8.61 98 1015.0
20260502032100 13 359 4.8 6.4 0.00 8.61 8.61 98 1014.7
20260502031558 13 16 12.9 17.7 0.00 8.61 8.61 98 1014.7
20260502031056 13 3 12.9 20.9 0.00 8.61 8.61 99 1014.6
20260502030555 13 50 14.5 17.7 0.00 8.61 8.61 99 1014.6
20260502030052 13 356 11.3 12.9 0.00 8.61 8.61 99 1014.5
20260502025549 13 354 12.9 16.1 0.00 8.61 8.61 99 1013.9
20260502025047 13 262 8.0 9.7 0.00 8.61 8.61 99 1013.8
20260502024544 14 307 4.8 6.4 0.00 8.61 8.61 99 1013.5
20260502024043 14 19 8.0 12.9 0.00 8.61 8.61 99 1013.3
20260502023540 14 20 12.9 16.1 0.00 8.61 8.61 99 1013.4
20260502023037 14 39 9.7 11.3 0.00 8.61 8.61 99 1013.4
20260502022534 14 26 6.4 9.7 0.00 8.61 8.61 99 1013.6
20260502022031 14 349 8.0 11.3 0.00 8.61 8.61 99 1013.2
20260502021528 15 7 14.5 16.1 0.00 8.61 8.61 99 1013.0
20260502021025 15 177 6.4 6.4 0.00 8.61 8.61 99 1013.0
20260502020523 15 32 6.4 9.7 0.00 8.61 8.61 99 1013.0
20260502020020 15 40 6.4 11.3 0.30 8.61 8.61 99 1013.1
20260502015518 15 272 3.2 3.2 0.43 8.61 8.61 99 1013.1
20260502015014 15 21 8.0 11.3 0.48 8.59 8.59 99 1012.9
20260502014511 15 296 1.6 3.2 0.18 8.53 8.53 99 1013.0
20260502014008 15 311 6.4 9.7 0.00 8.51 8.51 99 1012.8
20260502013503 15 11 9.7 11.3 0.13 8.51 8.51 99 1012.9
20260502013000 15 18 6.4 11.3 0.13 8.51 8.51 99 1012.7
20260502012457 15 21 8.0 9.7 0.18 8.48 8.48 99 1012.8
20260502011955 15 358 6.4 9.7 0.18 8.48 8.48 99 1012.8
20260502011450 15 2 4.8 4.8 0.00 8.46 8.46 99 1012.6
20260502010948 15 324 6.4 9.7 0.00 8.46 8.46 99 1012.6
20260502010445 15 27 8.0 9.7 0.30 8.46 8.46 99 1012.2
20260502005940 15 31 11.3 16.1 0.48 8.46 8.46 99 1012.0
20260502005439 15 351 8.0 11.3 0.30 8.41 8.41 99 1011.9
20260502004937 15 1 6.4 9.7 0.30 8.38 8.38 99 1011.8
20260502004437 15 283 6.4 9.7 0.18 8.36 8.36 99 1012.2
20260502003935 15 262 1.6 3.2 0.00 8.33 8.33 99 1012.3
20260502003432 15 306 6.4 9.7 0.00 8.33 8.33 99 1011.8
20260502002928 15 8 8.0 9.7 0.00 8.33 8.33 99 1011.5
20260502002426 15 24 4.8 6.4 0.13 8.33 8.33 99 1011.4
20260502001923 15 38 8.0 9.7 0.13 8.33 8.33 99 1011.5
20260502001420 15 19 12.9 16.1 0.00 8.31 8.31 99 1011.4
20260502000918 15 325 6.4 9.7 0.30 8.31 8.31 99 1011.3
20260502000417 15 12 9.7 11.3 0.61 8.31 8.31 99 1011.5
20260501235912 15 317 9.7 11.3 0.79 8.26 8.26 99 1011.2
20260501235408 15 37 9.7 12.9 1.27 8.20 8.20 99 1011.2
20260501234903 15 48 9.7 12.9 1.80 8.13 8.13 99 1011.1
20260501234400 15 262 6.4 9.7 1.98 8.03 8.03 99 1011.9
20260501233859 16 357 9.7 14.5 1.27 7.87 7.87 99 1011.9
20260501233355 16 10 9.7 11.3 0.30 7.70 7.70 99 1011.2
20260501232851 15 22 11.3 14.5 0.13 7.67 7.67 99 1011.1
20260501232349 15 228 8.0 11.3 0.30 7.65 7.65 99 1009.6
20260501231846 15 25 6.4 11.3 0.48 7.65 7.65 99 1009.5
20260501231344 16 66 1.6 3.2 0.43 7.62 7.62 99 1009.4
20260501230842 16 56 8.0 9.7 0.30 7.57 7.57 99 1009.8
20260501230341 16 92 8.0 14.5 0.48 7.54 7.54 99 1010.7
20260501225837 16 350 11.3 16.1 0.48 7.52 7.52 99 1010.8
20260501225336 16 20 6.4 9.7 0.48 7.47 7.47 99 1010.3
20260501224831 16 40 1.6 4.8 0.61 7.44 7.44 99 1009.9
20260501224329 16 17 11.3 14.5 0.30 7.39 7.39 99 1010.2
20260501223825 16 4 6.4 6.4 0.00 7.34 7.34 99 1009.9
20260501223321 16 29 11.3 17.7 0.00 7.34 7.34 99 1009.8
20260501222817 16 7 6.4 9.7 0.00 7.34 7.34 99 1009.9
20260501222315 16 4 14.5 22.5 0.00 7.34 7.34 99 1009.3
20260501221811 16 4 11.3 14.5 0.00 7.34 7.34 99 1009.5
20260501221308 16 358 8.0 9.7 0.00 7.34 7.34 99 1009.1
20260501220807 16 33 14.5 20.9 0.00 7.34 7.34 99 1009.4
20260501220303 16 35 9.7 12.9 0.00 7.34 7.34 99 1009.9
20260501215800 16 58 11.3 14.5 0.00 7.34 7.34 99 1009.7
20260501215255 16 26 6.4 6.4 0.00 7.34 7.34 99 1009.9
20260501214751 16 304 4.8 6.4 0.13 7.34 7.34 99 1010.1
20260501214247 16 5 6.4 12.9 0.89 7.34 7.34 99 1010.1
20260501213743 16 72 6.4 6.4 1.98 7.32 7.32 99 1010.1
20260501213240 16 24 8.0 11.3 3.53 7.21 7.21 99 1009.9
20260501212736 16 16 4.8 9.7 3.66 7.06 7.06 99 1010.6
20260501212232 16 312 6.4 9.7 3.48 6.73 6.73 99 1010.4
20260501211730 16 69 6.4 11.3 2.77 6.43 6.43 99 1010.0
20260501211227 16 11 6.4 6.4 2.11 6.12 6.12 99 1010.4
20260501210724 16 8 6.4 9.7 1.55 5.94 5.94 99 1010.4
20260501210220 16 268 4.8 6.4 0.61 5.77 5.77 99 1010.1
20260501205717 16 8 4.8 6.4 0.43 5.69 5.69 99 1009.9
20260501205214 16 65 11.3 14.5 0.48 5.66 5.66 99 1009.4
20260501204711 16 345 6.4 9.7 0.36 5.61 5.61 99 1009.2
20260501204207 16 30 9.7 9.7 0.48 5.59 5.59 99 1008.6
20260501203703 17 23 6.4 11.3 0.61 5.56 5.56 99 1008.4
20260501203201 17 16 8.0 11.3 0.79 5.54 5.54 99 1009.0
20260501202658 16 304 3.2 4.8 0.71 5.46 5.46 99 1008.7
20260501202155 16 7 14.5 17.7 0.89 5.41 5.41 99 1008.6
20260501201652 17 92 11.3 12.9 1.37 5.33 5.33 99 1008.8
20260501201148 17 44 4.8 4.8 1.50 5.26 5.26 99 1009.3
20260501200645 17 20 8.0 11.3 0.79 5.11 5.11 99 1009.1
20260501200143 17 344 3.2 3.2 0.18 5.00 5.00 99 1009.3
20260501195640 17 24 1.6 4.8 0.18 4.98 4.98 99 1008.8
20260501195135 17 310 3.2 3.2 0.18 4.98 4.98 99 1008.6
20260501194631 17 36 9.7 12.9 0.00 4.95 4.95 99 1008.6
20260501194127 17 77 3.2 6.4 0.00 4.95 4.95 99 1008.4
20260501193624 17 27 8.0 12.9 0.00 4.95 4.95 99 1008.3
20260501193123 17 75 9.7 12.9 0.00 4.95 4.95 99 1008.4
20260501192619 17 323 3.2 3.2 0.30 4.95 4.95 99 1008.6
20260501192117 17 43 8.0 11.3 0.30 4.95 4.95 99 1008.6
20260501191614 17 358 6.4 9.7 0.43 4.90 4.90 99 1009.0
20260501191111 17 3 4.8 4.8 0.89 4.90 4.90 99 1008.8
20260501190607 17 21 14.5 16.1 0.71 4.85 4.85 99 1009.1
20260501185559 17 75 0.0 1.6 0.18 4.72 4.72 99 1009.4
20260501185055 17 303 4.8 6.4 0.00 4.70 4.70 99 1009.2
20260501184551 17 337 8.0 11.3 0.00 4.70 4.70 99 1008.4
20260501184046 17 139 11.3 17.7 0.13 4.70 4.70 99 1007.8
20260501183543 17 67 4.8 6.4 0.48 4.70 4.70 99 1008.3
20260501183039 17 90 1.6 3.2 3.66 4.67 4.67 99 1007.7
20260501182536 17 64 6.4 9.7 6.25 4.65 4.65 99 1009.0
20260501182033 17 339 8.0 12.9 5.64 4.32 4.32 99 1008.7
20260501181530 17 152 17.7 24.1 1.98 3.63 3.63 99 1009.8
20260501181027 17 249 3.2 4.8 0.43 3.35 3.35 99 1010.8
20260501180525 17 245 1.6 3.2 0.30 3.30 3.30 99 1009.0
20260501180021 17 123 1.6 9.7 0.61 3.28 3.28 99 1008.2
20260501175518 17 82 8.0 16.1 1.50 3.25 3.25 99 1008.2
20260501175014 17 78 0.0 1.6 2.59 3.20 3.20 99 1008.6
20260501174512 17 63 9.7 16.1 1.98 3.02 3.02 99 1009.2
20260501174009 17 344 6.4 6.4 0.61 2.77 2.77 99 1010.4
20260501173506 17 258 6.4 9.7 0.30 2.69 2.69 99 1010.0